Location: Ellingshausen
(50.5460°N, 10.4723°E)
Time: 10:21:52
(UTC+00:00)

Meteor 2-10 Rocket - Pass Details

Date: 18 January 2026
Orbit: 733 x 881 km, 81.2° (Epoch: 18 February)

Event Time Altitude Azimuth Distance (km) Brightness Sun altitude
Rises 05:53:35 0° 227° (SW) 3,200 6.4 -11.9°
Reaches altitude 10° 05:56:15 10° 240° (WSW) 2,299 5.6 -11.5°
Maximum altitude 06:00:34 26° 297° (WNW) 1,494 4.4 -10.8°
Drops below altitude 10° 06:05:04 10° 354° (N) 2,391 5.8 -10.1°
Sets 06:07:54 0° 7° (N) 3,354 6.7 -9.7°
